| time (UTC) | temp C | wind direction | speed KPH | gust KPH | rain 1hr cm | rain 24hr cm | rain mn cm | humidity % | barometer mb |
| 20260508091016 | 12 | 0 | 0.0 | 0.0 | 0.00 | 0.00 | 0.00 | 79 | 1018.9 |
| 20260508085516 | 11 | 97 | 1.6 | 1.6 | 0.00 | 0.00 | 0.00 | 81 | 1018.7 |
| 20260508084016 | 11 | 0 | 0.0 | 0.0 | 0.00 | 0.00 | 0.00 | 81 | 1018.8 |
| 20260508082516 | 11 | 123 | 0.0 | 1.6 | 0.00 | 0.00 | 0.00 | 81 | 1018.7 |
| 20260508081016 | 11 | 0 | 0.0 | 0.0 | 0.00 | 0.00 | 0.00 | 80 | 1018.5 |
| 20260508075516 | 11 | 0 | 0.0 | 0.0 | 0.00 | 0.00 | 0.00 | 79 | 1018.3 |
| 20260508074016 | 10 | 0 | 0.0 | 0.0 | 0.00 | 0.00 | 0.00 | 79 | 1018.2 |
| 20260508072516 | 10 | 194 | 1.6 | 4.8 | 0.00 | 0.00 | 0.00 | 80 | 1018.4 |
| 20260508071016 | 10 | 0 | 0.0 | 0.0 | 0.00 | 0.00 | 0.00 | 82 | 1018.1 |
| 20260508065516 | 9 | 0 | 0.0 | 0.0 | 0.00 | 0.00 | 0.00 | 82 | 1017.8 |
| 20260508064016 | 9 | 0 | 0.0 | 0.0 | 0.00 | 0.00 | 0.00 | 82 | 1017.9 |
| 20260508062516 | 9 | 0 | 0.0 | 0.0 | 0.00 | 0.00 | 0.00 | 83 | 1018.0 |
| 20260508061016 | 8 | 0 | 0.0 | 0.0 | 0.00 | 0.00 | 0.00 | 83 | 1017.8 |
| 20260508055516 | 8 | 0 | 0.0 | 0.0 | 0.00 | 0.00 | 0.00 | 84 | 1017.6 |
| 20260508054016 | 8 | 0 | 0.0 | 0.0 | 0.00 | 0.00 | 0.00 | 85 | 1017.6 |
| 20260508052516 | 8 | 0 | 0.0 | 0.0 | 0.00 | 0.00 | 0.00 | 85 | 1017.3 |
| 20260508051016 | 7 | 0 | 0.0 | 0.0 | 0.00 | 0.00 | 0.00 | 85 | 1017.4 |
| 20260508045516 | 7 | 0 | 0.0 | 0.0 | 0.00 | 0.00 | 0.00 | 85 | 1017.3 |
| 20260508044016 | 7 | 0 | 0.0 | 0.0 | 0.00 | 0.00 | 0.00 | 85 | 1017.4 |
| 20260508042516 | 7 | 0 | 0.0 | 0.0 | 0.00 | 0.00 | 0.00 | 85 | 1017.4 |
| 20260508041016 | 7 | 0 | 0.0 | 0.0 | 0.00 | 0.00 | 0.00 | 83 | 1017.3 |
| 20260508035516 | 8 | 0 | 0.0 | 0.0 | 0.00 | 0.00 | 0.00 | 82 | 1017.3 |
| 20260508034016 | 8 | 0 | 0.0 | 0.0 | 0.00 | 0.00 | 0.00 | 82 | 1017.5 |
| 20260508032516 | 8 | 0 | 0.0 | 0.0 | 0.00 | 0.00 | 0.00 | 82 | 1017.3 |
| 20260508031016 | 7 | 0 | 0.0 | 0.0 | 0.00 | 0.00 | 0.00 | 85 | 1016.8 |
| 20260508025516 | 7 | 0 | 0.0 | 0.0 | 0.00 | 0.00 | 0.00 | 85 | 1017.2 |
| 20260508024016 | 7 | 0 | 0.0 | 0.0 | 0.00 | 0.00 | 0.00 | 85 | 1017.1 |
| 20260508022516 | 8 | 0 | 0.0 | 0.0 | 0.00 | 0.00 | 0.00 | 85 | 1017.1 |
| 20260508021016 | 8 | 0 | 0.0 | 0.0 | 0.00 | 0.00 | 0.00 | 84 | 1016.9 |
| 20260508015516 | 8 | 0 | 0.0 | 0.0 | 0.00 | 0.00 | 0.00 | 83 | 1016.9 |
| 20260508014016 | 8 | 0 | 0.0 | 0.0 | 0.00 | 0.00 | 0.00 | 83 | 1017.0 |
| 20260508012516 | 9 | 176 | 4.8 | 4.8 | 0.00 | 0.00 | 0.00 | 80 | 1017.1 |
| 20260508011016 | 9 | 176 | 4.8 | 4.8 | 0.00 | 0.00 | 0.00 | 80 | 1017.1 |
| 20260508005516 | 10 | 0 | 0.0 | 0.0 | 0.00 | 0.00 | 0.00 | 79 | 1016.8 |
| 20260508004016 | 10 | 194 | 1.6 | 1.6 | 0.00 | 0.00 | 0.00 | 79 | 1017.0 |
| 20260508002516 | 10 | 0 | 0.0 | 0.0 | 0.00 | 0.00 | 0.00 | 79 | 1017.1 |
| 20260508001016 | 10 | 0 | 0.0 | 0.0 | 0.00 | 0.00 | 0.00 | 79 | 1016.9 |
| 20260507235516 | 10 | 164 | 6.4 | 9.7 | 0.00 | 0.00 | 0.00 | 78 | 1017.2 |
| 20260507234016 | 10 | 182 | 6.4 | 6.4 | 0.00 | 0.00 | 0.00 | 78 | 1017.3 |
| 20260507232516 | 10 | 182 | 3.2 | 3.2 | 0.00 | 0.00 | 0.00 | 78 | 1017.1 |
| 20260507231016 | 10 | 168 | 1.6 | 1.6 | 0.00 | 0.00 | 0.00 | 77 | 1017.3 |
| 20260507225516 | 10 | 177 | 3.2 | 3.2 | 0.00 | 0.00 | 0.00 | 77 | 1017.3 |
| 20260507224016 | 10 | 175 | 3.2 | 3.2 | 0.00 | 0.00 | 0.00 | 75 | 1017.0 |
| 20260507222516 | 10 | 0 | 0.0 | 0.0 | 0.00 | 0.00 | 0.00 | 74 | 1017.0 |
| 20260507221016 | 10 | 0 | 0.0 | 0.0 | 0.00 | 0.00 | 0.00 | 74 | 1017.0 |
| 20260507215516 | 10 | 186 | 8.0 | 11.3 | 0.00 | 0.00 | 0.00 | 73 | 1017.0 |
| 20260507214016 | 11 | 179 | 6.4 | 6.4 | 0.00 | 0.00 | 0.00 | 73 | 1017.1 |
| 20260507212516 | 11 | 177 | 6.4 | 9.7 | 0.00 | 0.00 | 0.00 | 72 | 1017.2 |
| 20260507211016 | 11 | 164 | 6.4 | 6.4 | 0.00 | 0.00 | 0.00 | 71 | 1016.9 |
| 20260507205516 | 11 | 183 | 6.4 | 9.7 | 0.00 | 0.00 | 0.00 | 71 | 1016.8 |
| 20260507204016 | 11 | 174 | 6.4 | 6.4 | 0.00 | 0.00 | 0.00 | 70 | 1016.7 |
| 20260507202516 | 11 | 180 | 4.8 | 6.4 | 0.00 | 0.00 | 0.00 | 69 | 1016.6 |
| 20260507201016 | 11 | 166 | 1.6 | 4.8 | 0.00 | 0.00 | 0.00 | 67 | 1016.6 |
| 20260507195516 | 11 | 180 | 6.4 | 9.7 | 0.00 | 0.00 | 0.00 | 66 | 1016.3 |
| 20260507194016 | 11 | 165 | 6.4 | 6.4 | 0.00 | 0.00 | 0.00 | 66 | 1016.0 |
| 20260507192516 | 12 | 169 | 3.2 | 4.8 | 0.00 | 0.00 | 0.00 | 66 | 1016.2 |
| 20260507191016 | 12 | 176 | 6.4 | 6.4 | 0.00 | 0.00 | 0.00 | 66 | 1016.0 |
| 20260507185516 | 12 | 164 | 4.8 | 6.4 | 0.00 | 0.00 | 0.00 | 65 | 1016.3 |
| 20260507184016 | 12 | 180 | 6.4 | 9.7 | 0.00 | 0.00 | 0.00 | 64 | 1015.9 |
| 20260507182516 | 12 | 165 | 4.8 | 9.7 | 0.00 | 0.00 | 0.00 | 63 | 1016.0 |
| 20260507181016 | 12 | 145 | 3.2 | 4.8 | 0.00 | 0.00 | 0.00 | 63 | 1015.9 |
| 20260507175516 | 12 | 199 | 4.8 | 9.7 | 0.00 | 0.00 | 0.00 | 63 | 1015.7 |
| 20260507174016 | 13 | 182 | 8.0 | 12.9 | 0.00 | 0.00 | 0.00 | 60 | 1015.9 |
| 20260507172516 | 13 | 180 | 9.7 | 12.9 | 0.00 | 0.00 | 0.00 | 60 | 1016.0 |
| 20260507171016 | 13 | 144 | 6.4 | 11.3 | 0.00 | 0.00 | 0.00 | 60 | 1015.9 |
| 20260507165516 | 13 | 166 | 4.8 | 9.7 | 0.00 | 0.00 | 0.00 | 60 | 1015.9 |
| 20260507164017 | 13 | 179 | 11.3 | 12.9 | 0.00 | 0.00 | 0.00 | 59 | 1016.0 |
| 20260507162517 | 13 | 142 | 4.8 | 9.7 | 0.00 | 0.00 | 0.00 | 59 | 1015.9 |
| 20260507161017 | 13 | 139 | 4.8 | 6.4 | 0.00 | 0.00 | 0.00 | 62 | 1016.1 |
| 20260507155517 | 12 | 140 | 3.2 | 4.8 | 0.00 | 0.00 | 0.00 | 64 | 1016.1 |
| 20260507154017 | 12 | 164 | 3.2 | 4.8 | 0.00 | 0.00 | 0.00 | 65 | 1016.3 |
| 20260507152517 | 12 | 183 | 6.4 | 9.7 | 0.00 | 0.00 | 0.00 | 65 | 1016.5 |
| 20260507151017 | 12 | 172 | 6.4 | 11.3 | 0.00 | 0.00 | 0.00 | 66 | 1016.4 |
| 20260507145517 | 12 | 172 | 8.0 | 11.3 | 0.00 | 0.00 | 0.00 | 65 | 1016.7 |
| 20260507144017 | 12 | 176 | 6.4 | 6.4 | 0.00 | 0.00 | 0.00 | 65 | 1016.6 |
| 20260507142517 | 12 | 162 | 8.0 | 11.3 | 0.00 | 0.00 | 0.00 | 67 | 1016.7 |
| 20260507141017 | 12 | 174 | 4.8 | 6.4 | 0.00 | 0.00 | 0.00 | 66 | 1017.0 |
| 20260507135517 | 12 | 178 | 6.4 | 6.4 | 0.00 | 0.00 | 0.00 | 65 | 1016.9 |
| 20260507134017 | 12 | 192 | 9.7 | 12.9 | 0.00 | 0.00 | 0.00 | 64 | 1016.8 |
| 20260507132517 | 12 | 165 | 8.0 | 9.7 | 0.00 | 0.00 | 0.00 | 63 | 1016.9 |
| 20260507131017 | 12 | 141 | 8.0 | 11.3 | 0.00 | 0.00 | 0.00 | 64 | 1016.8 |
| 20260507125517 | 12 | 132 | 9.7 | 11.3 | 0.00 | 0.00 | 0.00 | 65 | 1016.8 |
| 20260507124017 | 12 | 184 | 4.8 | 9.7 | 0.00 | 0.00 | 0.00 | 67 | 1016.8 |
| 20260507122517 | 12 | 166 | 8.0 | 12.9 | 0.00 | 0.00 | 0.00 | 68 | 1017.2 |
| 20260507121017 | 12 | 174 | 6.4 | 11.3 | 0.00 | 0.00 | 0.00 | 70 | 1017.3 |
| 20260507115517 | 12 | 182 | 1.6 | 1.6 | 0.00 | 0.00 | 0.00 | 71 | 1017.2 |
| 20260507114017 | 11 | 124 | 4.8 | 9.7 | 0.00 | 0.00 | 0.00 | 74 | 1017.3 |
| 20260507112517 | 10 | 124 | 6.4 | 12.9 | 0.00 | 0.00 | 0.00 | 77 | 1017.6 |
| 20260507111017 | 10 | 106 | 8.0 | 12.9 | 0.00 | 0.00 | 0.00 | 78 | 1017.4 |
| 20260507105517 | 9 | 172 | 8.0 | 11.3 | 0.00 | 0.00 | 0.00 | 79 | 1017.7 |
| 20260507104017 | 9 | 164 | 6.4 | 9.7 | 0.00 | 0.00 | 0.00 | 79 | 1017.6 |
| 20260507102517 | 8 | 172 | 6.4 | 11.3 | 0.00 | 0.00 | 0.00 | 80 | 1017.6 |
| 20260507101017 | 8 | 171 | 6.4 | 6.4 | 0.00 | 0.00 | 0.00 | 80 | 1017.8 |
| 20260507095517 | 8 | 184 | 6.4 | 9.7 | 0.00 | 0.00 | 0.00 | 79 | 1017.7 |
| 20260507094017 | 8 | 185 | 9.7 | 12.9 | 0.00 | 0.00 | 0.00 | 80 | 1017.7 |
| 20260507092517 | 8 | 187 | 9.7 | 12.9 | 0.00 | 0.00 | 0.00 | 80 | 1017.8 |